www.pogodaiklimat.ru

Погода и климат >> Архив погоды >> Великобритания >> Фэр-Айл


ПОГОДА на Фэр-Айл

  • Прогноз погоды на Фэр-Айл
  • Монитор погоды на Фэр-Айл

АРХИВ ПОГОДЫ на Фэр-Айл

Время (UTC), дата Ветер
(напр.,м/с)
 
Видим.   Явления Облачность Т
(С)
Тd
(С)
f
(%)
Тe
(С)
Тes
(С)
Комфортность P
(гПа)
Po
(гПа)
Тmin
(С)
Tmax
(С)
R
(мм)
R24
(мм)
S
(см)
04 15.08 В 8-15
{15}
4000 м дождь н/о +12.9 +12.4 97 +10 +10 999.1 991.9
05 15.08 ЮВ 8
{15}
8000 м слаб. дождь н/о +12.9 +12.7 99 +10 +10 998.9 991.8
06 15.08 ЮВ 6
{14}
7000 м переохл. морось (гололёд) {дождь} н/о +13.2 +12.9 98 +11 +11 998.4 991.3 +12.5 11
07 15.08 Ю 4 5000 м морось с дождем н/о +13.4 +13.2 99 +12 +12 998.1 991.0
08 15.08 ЮЗ 5 600 м туман н/о +13.1 +13.1 100 +11 +11 998.4 991.3
09 15.08 ЮЗ 6 6000 м в посл. час морось {туман} н/о +13.5 +13.5 100 +11 +11 998.8 991.7
10 15.08 З 5 14 км н/о +13.8 +13.4 97 +12 +12 999.1 992.0
11 15.08 0 н/о 992.9
12 15.08 З 10
{14}
18 км {морось, туман} н/о +12.5 +9.5 82 +9 +9 1001.5 994.3 0.4
13 15.08 З 11
{17}
21 км н/о +12.4 +8.8 79 +9 +9 1002.4 995.2
14 15.08 З 11
{17}
13 км н/о +12.5 +8.3 76 +9 +9 1003.0 995.9
15 15.08 З 10
{15}
17 км н/о +12.7 +9.7 82 +9 +10 1003.7 996.5
16 15.08 З 10
{15}
19 км н/о +12.6 +8.3 75 +9 +9 1004.5 997.3
17 15.08 З 9
{15}
24 км н/о +12.4 +8.4 77 +9 +9 1005.0 997.8
18 15.08 З 6 20 км н/о +12.2 +8.9 80 +9 +10 1005.6 998.4 0.4
19 15.08 З 5 24 км н/о +11.8 +8.7 81 +9 +9 1006.0 998.8
20 15.08 З 6 23 км н/о +11.4 +8.7 83 +8 +8 1006.3 999.1
21 15.08 З 4 12 км н/о +11.0 +9.5 90 +8 +8 1006.7 999.5
22 15.08 З 4 17 км н/о +10.8 +9.2 90 +8 +8 1006.8 999.5
23 15.08 ЮЗ 4 15 км н/о +10.5 +9.2 92 +8 +8 1006.7 999.5
00 16.08 ЮЗ 3 15 км н/о +10.4 +9.4 94 +8 +8 1006.7 999.4
01 16.08 Ю 3 21 км н/о +9.9 +9.5 97 +7 +7 1006.4 999.1
02 16.08 Ю 5 24 км н/о +11.4 +10.3 93 +9 +9 1005.7 998.5
03 16.08 ЮВ 6 27 км н/о +11.9 +10.2 89 +9 +9 1004.9 997.7
04 16.08 ЮВ 8 16 км слаб. морось с дождем н/о +12.2 +10.8 91 +9 +9 1004.1 996.9
05 16.08 ЮВ 9 9000 м слаб. дождь н/о +12.4 +11.3 93 +9 +9 1003.4 996.2
06 16.08 ЮВ 8 17 км слаб. дождь н/о +12.4 +11.4 94 +9 +9 1002.5 995.4 +9.8 0.6
07 16.08 ЮВ 8 10 км слаб. дождь н/о +12.6 +12.1 97 +9 +9 1001.9 994.8
08 16.08 ЮВ 9 9000 м слаб. дождь н/о +12.8 +12.5 98 +10 +10 1001.2 994.0
09 16.08 ЮВ 9
{13}
10 км слаб. морось с дождем н/о +13.2 +12.8 97 +10 +10 1000.3 993.1
10 16.08 ЮВ 10
{14}
7000 м слаб. дождь н/о +13.4 +13.1 98 +10 +10 999.2 992.1
11 16.08 ЮВ 12
{16}
8000 м слаб. морось н/о +13.5 +13.0 97 +10 +10 998.3 991.2
12 16.08 ЮВ 13
{16}
9000 м слаб. морось {дождь} н/о +13.4 +12.8 96 +10 +10 997.2 990.1 2
13 16.08 ЮВ 12
{16}
9000 м в посл. час дождь н/о +13.3 +12.9 97 +10 +10 996.1 989.0
14 16.08 ЮВ 12
{17}
7000 м дымка н/о +13.7 +12.8 94 +10 +10 995.2 988.1
15 16.08 ЮВ 13
{18}
9000 м в посл. час дождь н/о +13.8 +12.7 93 +10 +10 994.3 987.2
16 16.08 ЮВ 11
{17}
8000 м в посл. час дождь н/о +13.8 +12.9 94 +11 +11 993.5 986.5
17 16.08 ЮВ 11
{17}
7000 м в посл. час дождь н/о +13.7 +12.8 94 +10 +10 992.8 985.8
18 16.08 Ю 11
{17}
7000 м дымка {дождь} н/о +13.6 +12.8 95 +10 +10 992.6 985.6 +14.0 2
19 16.08 Ю 10
{14}
5000 м слаб. ливневой дождь н/о +13.2 +13.0 99 +10 +10 992.4 985.4
20 16.08 Ю 7 1500 м дождь н/о +12.8 +12.8 100 +10 +10 992.4 985.4
21 16.08 Ю 4 4400 м в посл. час дождь н/о +12.7 +12.7 100 +11 +11 992.1 985.0
22 16.08 ЮВ 2 700 м туман н/о +12.5 +12.5 100 +11 +11 991.9 984.8
23 16.08 ЮВ 4 4500 м в посл. час туман н/о +12.4 +12.4 100 +10 +10 991.4 984.3
00 17.08 Ю 3 5000 м дымка н/о +12.6 +12.6 100 +11 +11 991.2 984.2 7
01 17.08 ЮВ 4 1600 м дымка н/о +12.7 +12.7 100 +11 +11 990.5 983.5
02 17.08 В 2 200 м туман н/о +12.2 +12.2 100 +11 +11 990.1 983.0
03 17.08 ЮВ 2 5000 м в посл. час туман н/о +12.9 +12.9 100 +12 +12 989.5 982.5
04 17.08 Ю 1 12 км в посл. час дождь н/о +12.5 +12.5 100 +12 +12 989.0 981.9
05 17.08 В 2 2600 м слаб. ливневой дождь н/о +13.0 +13.0 100 +12 +12 988.3 981.2
06 17.08 ЮВ 2 200 м туман н/о +12.8 +12.8 100 +12 +12 988.4 981.3 +12.2 8
07 17.08 ЮВ 2 2700 м в посл. час туман н/о +13.5 +13.5 100 +13 +13 988.2 981.2
08 17.08 Ю 2 10 км н/о +13.8 +13.6 99 +13 +13 987.9 980.8
09 17.08 Ю 4 10 км {туман} н/о +14.6 +14.1 97 +13 +16 987.9 980.9
10 17.08 Ю 5 15 км н/о +13.7 +12.7 94 +12 +12 988.1 981.1
11 17.08 З 6 23 км в посл. час дождь н/о +13.1 +11.8 92 +11 +11 988.5 981.4
12 17.08 З 8 12 км в посл. час дождь со снегом {ливн. осадки} н/о +11.6 +10.9 95 +8 +8 989.2 982.1 0.2
13 17.08 ЮЗ 7 16 км слаб. морось с дождем н/о +12.0 +11.3 95 +9 +9 990.0 982.9
14 17.08 ЮЗ 5 18 км в посл. час дождь н/о +13.6 +11.9 89 +12 +12 990.2 983.2
15 17.08 ЮЗ 6 17 км {ливн. осадки} н/о +14.0 +11.9 87 +12 +13 990.8 983.8
16 17.08 Ю 7 20 км н/о +13.5 +11.8 89 +11 +11 991.2 984.2
17 17.08 Ю 6 23 км н/о +13.7 +10.5 81 +12 +12 991.4 984.4
18 17.08 Ю 5 15 км {ливн. осадки} н/о +13.0 +10.7 86 +11 +11 991.4 984.3 +15.1 0.6
19 17.08 Ю 6 16 км н/о +12.2 +10.5 89 +10 +10 991.5 984.4
20 17.08 Ю 8 22 км н/о +12.5 +10.2 86 +9 +9 991.4 984.3
21 17.08 Ю 8 19 км н/о +12.8 +10.7 87 +10 +10 991.3 984.2
22 17.08 Ю 8 14 км слаб. ливневой дождь н/о +12.6 +10.5 87 +10 +10 991.4 984.4
23 17.08 Ю 6
{13}
15 км слаб. дождь н/о +11.2 +10.1 93 +8 +8 991.1 984.0
00 18.08 ЮВ 5 17 км в посл. час дождь н/о +12.4 +11.3 93 +10 +10 990.7 983.6 1
01 18.08 Ю 8 17 км н/о +12.4 +10.4 88 +9 +9 990.2 983.1
02 18.08 Ю 9
{13}
15 км н/о +12.3 +10.1 86 +9 +9 990.0 982.9
03 18.08 Ю 8 10 км ливневой дождь н/о +11.3 +10.4 94 +8 +8 989.6 982.5
04 18.08 ЮВ 6 12 км в посл. час дождь н/о +11.8 +10.8 94 +9 +9 989.2 982.1
05 18.08 Ю 8 13 км н/о +12.1 +11.0 93 +9 +9 988.7 981.7
06 18.08 Ю 8 11 км {ливн. осадки} н/о +12.3 +11.0 92 +9 +9 988.7 981.6 +11.0 2
07 18.08 Ю 9 10 км слаб. ливневой дождь н/о +12.3 +11.2 93 +9 +9 988.7 981.6
08 18.08 Ю 8 10 км слаб. морось с дождем н/о +12.1 +11.3 95 +9 +9 988.7 981.7
09 18.08 Ю 7 11 км в посл. час дождь н/о +13.0 +11.7 92 +10 +10 988.8 981.8
10 18.08 Ю 7 10 км н/о +14.0 +12.2 89 +12 +12 988.9 981.9
11 18.08 Ю 7 9000 м слаб. морось с дождем н/о +12.8 +11.7 93 +10 +10 989.1 982.1
12 18.08 Ю 7 15 км в посл. час дождь со снегом {ливн. осадки} н/о +14.0 +12.3 89 +12 +12 989.1 982.1 0.2
13 18.08 Ю 7 17 км н/о +14.6 +12.5 87 +13 +13 989.1 982.1
14 18.08 ЮВ 7 12 км дым н/о +13.7 +12.0 89 +11 +11 989.0 981.9
15 18.08 Ю 7 11 км н/о +13.3 +12.0 92 +11 +12 988.9 981.8
16 18.08 Ю 5 10 км н/о +13.6 +12.0 90 +12 +12 988.8 981.8
17 18.08 Ю 5 10 км н/о +13.0 +11.8 92 +11 +11 988.9 981.9
18 18.08 Ю 2 9000 м переохл. морось (гололёд) н/о +13.0 +12.0 94 +12 +12 988.9 981.9 +14.8 0.2
19 18.08 В 1 8000 м в посл. час дождь н/о +12.7 +12.0 96 +13 +13 989.1 982.0
20 18.08 З 2 11 км н/о +12.1 +11.2 94 +11 +11 989.5 982.4
21 18.08 З 3 12 км в посл. час дождь н/о +12.1 +11.2 94 +10 +10 990.1 983.0
22 18.08 З 4 13 км н/о +11.9 +11.6 98 +10 +10 990.6 983.5
23 18.08 З 6 15 км н/о +12.0 +11.7 98 +9 +9 991.3 984.2
00 19.08 З 5 10 км слаб. ливневой дождь н/о +11.9 +11.6 98 +9 +9 992.1 985.0 0.0
01 19.08 З 6 2500 м слаб. морось н/о +11.4 +11.4 100 +8 +8 992.4 985.3
02 19.08 З 7 13 км в посл. час морось н/о +12.0 +11.2 95 +9 +9 992.8 985.7
03 19.08 З 5 14 км н/о +12.0 +11.5 97 +9 +9 993.2 986.1
04 19.08 З 6 13 км в посл. час дождь н/о +11.9 +11.7 99 +9 +9 993.7 986.6
05 19.08 ЮЗ 8 17 км н/о +12.2 +11.4 95 +9 +9 994.2 987.1
06 19.08 ЮЗ 7 14 км {ливн. осадки} н/о +12.3 +11.7 96 +9 +9 994.6 987.5 +11.3 0.8
07 19.08 ЮЗ 9
{13}
17 км н/о +12.4 +11.6 95 +9 +9 994.8 987.7
08 19.08 ЮЗ 9
{14}
3400 м ливневой дождь н/о +12.2 +11.8 97 +9 +9 995.6 988.5
09 19.08 ЮЗ 7
{13}
14 км в посл. час дождь н/о +12.2 +12.0 99 +9 +9 996.2 989.1
10 19.08 ЮЗ 8 21 км слаб. морось с дождем н/о +12.3 +11.5 95 +9 +9 996.9 989.8
11 19.08 З 7 17 км в посл. час дождь н/о +12.7 +11.5 92 +10 +10 997.7 990.6
12 19.08 З 7 14 км {дождь, морось} н/о +13.5 +11.8 89 +11 +11 998.4 991.3 1
13 19.08 З 7 11 км н/о +13.4 +11.8 90 +11 +11 999.3 992.2
14 19.08 З 6 17 км н/о +14.2 +12.2 88 +12 +12 1000.0 992.9
15 19.08 З 7 12 км н/о +13.8 +11.9 88 +11 +11 1000.8 993.6
16 19.08 З 6 19 км н/о +13.0 +11.7 92 +10 +10 1001.1 994.0
17 19.08 ЮЗ 7 10 км дым н/о +12.8 +10.8 88 +10 +10 1001.5 994.3
18 19.08 ЮЗ 7 17 км н/о +12.4 +11.5 94 +9 +9 1001.8 994.7 +14.7 1
19 19.08 З 5 11 км н/о +12.1 +11.8 98 +9 +9 1002.4 995.2
20 19.08 З 4 10 км в посл. час дождь н/о +11.9 +11.8 99 +10 +10 1003.4 996.2
21 19.08 З 4 12 км в посл. час дождь со снегом {морось} н/о +12.0 +11.9 99 +10 +10 1004.0 996.8
22 19.08 З 7 15 км слаб. морось с дождем н/о +11.9 +11.4 97 +9 +9 1004.8 997.6
23 19.08 СЗ 6 24 км в посл. час дождь н/о +11.3 +10.7 96 +8 +8 1005.6 998.4
00 20.08 З 6 26 км н/о +11.7 +9.5 86 +9 +9 1006.3 999.1 0.0
01 20.08 З 8 20 км н/о +11.3 +9.2 87 +8 +8 1006.7 999.5
02 20.08 З 7 3100 м морось с дождем н/о +10.1 +9.6 97 +6 +6 1007.5 1000.3
03 20.08 З 9
{13}
21 км в посл. час дождь н/о +10.5 +8.9 90 +6 +6 1008.0 1000.8
04 20.08 З 7
{13}
22 км н/о +10.2 +7.9 86 +7 +7 1008.8 1001.5
05 20.08 З 9
{14}
27 км н/о +10.4 +7.5 82 +6 +6 1009.5 1002.3
06 20.08 З 9
{14}
35 км {ливн. осадки} н/о +10.0 +7.2 83 +6 +6 1010.4 1003.1 +9.8 0.6
07 20.08 З 6 20 км н/о +10.5 +8.4 87 +7 +7 1011.1 1003.9
08 20.08 З 7 27 км н/о +11.0 +8.7 86 +8 +8 1011.8 1004.6
09 20.08 З 8 25 км н/о +11.5 +8.5 82 +8 +9 1012.5 1005.3
10 20.08 З 7 22 км н/о +11.7 +8.6 81 +9 +9 1013.2 1006.0
11 20.08 З 8
{13}
29 км н/о +11.3 +6.7 73 +8 +8 1014.0 1006.7
12 20.08 З 7
{13}
20 км н/о +11.2 +7.4 77 +8 +8 1014.9 1007.7
13 20.08 З 8 28 км н/о +11.4 +6.8 73 +8 +8 1015.7 1008.5
14 20.08 З 7 30 км н/о +10.9 +6.9 76 +7 +7 1016.6 1009.3
15 20.08 З 5 25 км н/о +12.1 +6.9 70 +10 +10 1017.0 1009.7
16 20.08 З 5 28 км н/о +11.9 +7.5 74 +9 +9 1017.6 1010.3
17 20.08 З 5 30 км н/о +11.4 +5.9 69 +9 +9 1018.0 1010.7
18 20.08 З 4 40 км н/о +11.2 +6.3 72 +9 +9 1018.4 1011.1 +12.7
19 20.08 З 6 27 км н/о +10.7 +5.6 71 +8 +8 1019.0 1011.7
20 20.08 З 4 40 км н/о +10.2 +5.7 74 +8 +8 1019.4 1012.1
21 20.08 З 3 40 км н/о +10.1 +6.3 77 +8 +8 1019.8 1012.4
22 20.08 ЮЗ 2 30 км н/о +9.8 +6.5 80 +8 +8 1020.0 1012.7
23 20.08 Ю 2 26 км н/о +9.4 +6.6 83 +8 +8 1020.2 1012.8
00 21.08 Ю 3 40 км н/о +9.3 +7.4 88 +7 +7 1020.2 1012.9
01 21.08 Ю 4 30 км н/о +9.4 +7.8 90 +7 +7 1020.2 1012.8
02 21.08 Ю 4 29 км н/о +9.9 +8.7 92 +7 +7 1020.1 1012.8
03 21.08 ЮВ 3 30 км н/о +10.4 +9.2 92 +8 +8 1019.8 1012.5
04 21.08 ЮВ 4 27 км н/о +10.7 +9.5 92 +8 +8 1019.5 1012.2
05 21.08 ЮВ 4 23 км н/о +11.2 +10.1 93 +9 +9 1019.1 1011.8
06 21.08 ЮВ 5 22 км н/о +11.6 +10.9 95 +9 +9 1019.0 1011.7 +8.6
07 21.08 ЮВ 6 22 км н/о +12.3 +11.5 95 +9 +9 1018.8 1011.5
08 21.08 ЮВ 8 23 км н/о +12.6 +11.7 94 +9 +9 1018.7 1011.4
09 21.08 ЮВ 8 27 км н/о +13.6 +12.1 91 +11 +11 1018.2 1010.9
10 21.08 ЮВ 7 18 км н/о +13.9 +12.5 91 +12 +12 1017.6 1010.4
11 21.08 ЮВ 8 26 км н/о +13.9 +12.4 91 +11 +11 1017.2 1010.0
12 21.08 ЮВ 8 12 км н/о +14.0 +12.5 91 +11 +11 1016.8 1009.6
13 21.08 ЮВ 7 11 км н/о +13.8 +12.3 91 +11 +11 1016.4 1009.2
14 21.08 ЮВ 7 11 км дым н/о +13.8 +12.4 91 +11 +11 1015.8 1008.6
15 21.08 ЮВ 7 9000 м дым н/о +13.2 +12.1 93 +11 +11 1014.9 1007.7
16 21.08 ЮВ 10 10 км дымка н/о +12.9 +12.2 96 +9 +9 1014.6 1007.3
17 21.08 ЮВ 9 12 км н/о +12.8 +12.0 95 +10 +10 1013.8 1006.5
18 21.08 ЮВ 9 11 км сильн. ливневой дождь {морось} н/о +12.7 +11.9 95 +9 +9 1013.1 1005.8 +14.7 0.0
19 21.08 Ю 8
{14}
10 км слаб. дождь н/о +12.6 +12.0 96 +9 +9 1012.6 1005.4
20 21.08 Ю 8 8000 м слаб. ливневой дождь н/о +12.4 +12.0 97 +9 +9 1012.2 1005.0
21 21.08 Ю 9
{13}
12 км в посл. час дождь со снегом {морось} н/о +12.7 +11.6 93 +9 +9 1011.7 1004.5
22 21.08 Ю 10
{15}
11 км слаб. ливневой дождь н/о +12.4 +11.8 96 +9 +9 1011.1 1003.9
23 21.08 Ю 9
{13}
8000 м в посл. час дождь н/о +12.3 +12.0 98 +9 +9 1010.7 1003.5
00 22.08 Ю 7 3300 м ливневой дождь н/о +12.0 +12.0 100 +9 +9 1010.2 1003.0 2
01 22.08 ЮЗ 5 8000 м в посл. час дождь н/о +12.1 +12.1 100 +9 +9 1010.0 1002.8
02 22.08 ЮЗ 6 12 км в посл. час дождь н/о +12.1 +11.6 97 +9 +9 1009.9 1002.7
03 22.08 З 3 8000 м дымка н/о +11.7 +11.3 97 +10 +10 1009.8 1002.5

 

Местоположение метеостанции Фэр-Айл (Великобритания): широта 59.53 долгота -1.63 высота над уровнем моря 57 м.

В архиве по умолчанию представлена погода на Фэр-Айл за последнюю неделю. Архивные данные за месяц целиком и за предыдущие месяцы, начиная с января 2011 года, Вы можете получить, выбрав интересующий диапазон дат из раскрывающегося списка и нажав кнопку "Ввод!".


*Определитесь, кто Вы:
робот инопланетянин человек

Внимание! Время в таблицах - всемирное. Для получения местного времени необходимо прибавить поправку, которая равна 0 ч.

Смотрите также архив погоды в соседних городах и на ближайших метеорологических станциях:

Погода на Фуле (Великобритания) (70 км)
Погода в Леруике (Великобритания) (71 км)
Погода в Керкуолле (Великобритания) (97 км)
Погода в Болтасаунде (Великобритания) (142 км)
Погода в Уике (Великобритания) (146 км)
Погода на Сул-Скерри (Великобритания) (165 км)
Погода на Алтнахарре (Великобритания) (213 км)
Погода в Лоссимуте (Великобритания) (224 км)
Погода в Тейн-Рендже (Великобритания) (233 км)
Погода в Кинлоссе (Великобритания) (237 км)

Пояснения к столбцам:

Ветер - указаны скорость ветра в м/с - средняя за 10 мин, порывы в срок и между сроками (в фигурных скобках) и направление, откуда дует ветер: С - северный, СВ - северо-восточный, В - восточный, ЮВ - юго-восточный, Ю - южный, ЮЗ - юго-западный, З - западный, СЗ - северо-западный.
Видимость - горизонтальная дальность видимости в метрах или километрах. При видимости от 1 до 10 км при отсутствии осадков обычно наблюдается дымка, при ухудшении видимости до 1 км и менее - туман. В сухую погоду видимость может ухудшаться дымом, пылью или мглою.
Явления - указаны атмосферные явления, наблюдавшиеся в срок или в последний час перед сроком; фигурными скобками обозначены явления, наблюдавшиеся между сроками (за 1-3 часа до срока); квадратными скобками обозначены град или гололедные отложения с указанием их диаметра в мм.
Облачность - указаны через наклонную черту общая и нижняя облачность в баллах и высота нижней границы облаков в метрах; квадратными скобками обозначены формы облаков: Ci - перистые, Cs - перисто-слоистые, Cc - перисто-кучевые, Ac - высококучевые, As - высокослоистые, Sc - слоисто-кучевые, Ns - слоисто-дождевые, Cu - кучевые, Cb - кучево-дождевые. Подробнее классификацию облаков см. в Атласе облаков (PDF).
T - Температура воздуха - температура, измеренная на высоте 2 м над землей.
Td - Температура точки росы - температура, при понижении до которой содержащийся в воздухе водяной пар достигнет насыщения.
f - Относительная влажность воздуха - влажноcть воздуха, измеренная на высоте 2 м над землей.
Te - Эффективная температура - температура, которую ощущает одетый по сезону человек в тени. Характеристика душности погоды. При расчете учитывается влияние влажности воздуха и скорости ветра на теплоощущения человека.
Tes - Эффективная температура на солнце - температура, которую ощущает человек, с поправкой на солнечный нагрев. Характеристика знойности погоды. Зависит от высоты солнца над горизонтом, облачности и скорости ветра. Ночью, в пасмурную погоду, а также при ветре 12 м/с и более поправка равна нулю.
P - Атмосферное давление - приведенное к уровню моря атмосферное давление.
Po - Атмосферное давление - измеренное на уровне метеостанции атмосферное давление.
Tmin - Минимальная температура - минимум температуры воздуха на высоте 2 м над землей.
Tmax - Максимальная температура - максимум температуры воздуха на высоте 2 м над землей.
R - Количество осадков - Количество выпавших осадков за период времени, мм. При наведении курсора мыши на число - период времени, за который выпало указанное количество осадков.
R24 - Количество осадков - Количество выпавших осадков за 24 часа, мм.
S - Снежный покров - Высота снежного покрова, см. При наведении курсора мыши на число - состояние снежного покрова и степень покрытия местности в баллах.